Regional Weather Roundup
Issued by NWS

Home | Current Version | Previous Version | Graphics & Text | Print | Product List | Glossary On
Versions: 1 2 3 4 5 6 7 8 9 10 11 12 13 14 15 16 17 18 19 20 21 22 23 24 25 26 27 28
000
ASUS45 KPSR 300310
RWRAZ

ARIZONA HOURLY REGIONAL WEATHER ROUNDUP
NATIONAL WEATHER SERVICE PHOENIX AZ
800 PM MST SAT APR 29 2017

NOTE: FAIR INDICATES FEW OR NO CLOUDS BELOW 12,000 FEET WITH NO
SIGNIFICANT WEATHER AND/OR OBSTRUCTIONS TO VISIBILITY.

AZZ001>003-036-300400-
NORTHWEST ARIZONA

CITY           SKY/WX    TMP DP  RH WIND       PRES   REMARKS
BULLHEAD CITY  CLEAR     79  14   8 N10       29.95R
KINGMAN        CLEAR     62  14  15 N13       30.06R
$$

AZZ004>008-015-016-018-300400-
NORTH CENTRAL ARIZONA

CITY           SKY/WX    TMP DP  RH WIND       PRES   REMARKS
GRAND CANYON   PTCLDY    46  11  24 N3        30.11R
WILLIAMS       PTCLDY    45  12  26 NW13      30.12R
PRESCOTT       CLEAR     53  13  20 NW12      30.06R
FLAGSTAFF      PTCLDY    40  11  30 NW3       30.12R
PAYSON         CLEAR     54  12  19 NE7       30.09R
PAGE           CLEAR     60  14  16 N14       30.04R
$$

AZZ009>014-017-300400-
NORTHEAST ARIZONA

CITY           SKY/WX    TMP DP  RH WIND       PRES   REMARKS
WINSLOW        CLEAR     53  12  19 N6        30.06R
SAINT JOHNS    PTCLDY    41  33  73 S8        30.05R
WINDOW ROCK    CLOUDY    39  24  55 CALM      30.06R
SHOW LOW       PTCLDY    39  18  41 NE5       30.09R
$$

AZZ540-542>544-546-548-300400-
GREATER PHOENIX AREA

CITY           SKY/WX    TMP DP  RH WIND       PRES   REMARKS
PHOENIX        PTCLDY    75  21  13 SW14      29.88R
BUCKEYE        CLEAR     75  18  11 NW8       29.91R
LUKE AFB       CLEAR     75  24  15 N3        29.88R
DEER VALLEY    CLEAR     74  12   9 NW3       29.89R
SCOTTSDALE     CLEAR     74  21  13 VRB3      29.91R
MESA-FALCON    PTCLDY   N/A N/A N/A SW12      29.91
MESA-GATEWAY   PTCLDY    72  23  16 SW8       29.92R
CHANDLER       CLEAR     73  19  13 SW14      29.91R
$$

AZZ539-553-300400-
SOUTHWEST MARICOPA COUNTY AND PINAL COUNTY

CITY           SKY/WX    TMP DP  RH WIND       PRES   REMARKS
CASA GRANDE    CLEAR     70  23  17 SW8       29.94R
GILA BEND      FAIR      74  18  12 SW8       29.92R
$$

AZZ503-504-507>509-300400-
SOUTHEAST ARIZONA

CITY           SKY/WX    TMP DP  RH WIND       PRES   REMARKS
TUCSON         CLEAR     68  15  13 NW5       30.01R
DAVIS-MONTHAN  CLEAR     65  15  14 NW6       30.00R
NOGALES        CLEAR     60  11  14 N7        30.04R
SIERRA VISTA   CLEAR     53  10  17 W7        30.08R
DOUGLAS        CLEAR     56  10  16 NW10      30.04R
SAFFORD        MOCLDY    62  18  18 N5        29.97R
$$

AZZ532-300400-
SOUTHWEST ARIZONA

CITY           SKY/WX    TMP DP  RH WIND       PRES   REMARKS
YUMA           CLEAR     79  15   9 N8        29.94R
$$

CAZ041-043-047-048-061-525>527-560>570-300400-
SOUTHERN CALIFORNIA

CITY           SKY/WX    TMP DP  RH WIND       PRES   REMARKS
DOWNTOWN L.A.  CLEAR     69  38  32 W3        29.98R
L.A. AIRPORT   CLEAR     64  44  48 W15       30.00R
SAN DIEGO      CLEAR     71  46  40 N7        30.03R
BURBANK        CLEAR     76  20  12 S3        30.00R
ONTARIO        CLEAR     72  23  16 W13       30.01R
RIVERSIDE      CLEAR     73  27  18 W9        30.00R
PALM SPRINGS   CLEAR     81  11   7 N6        29.99R
EL CENTRO NAS  CLEAR     78  17  10 SW5       29.96R
IMPERIAL       CLEAR     73  33  23 W3        29.94R
BLYTHE         CLEAR     79  13   8 N10       29.95R
NEEDLES        CLEAR     76  17  11 N6        29.96R
$$

NVZ020-UTZ003-300400-
SOUTHERN NEVADA-UTAH

CITY           SKY/WX    TMP DP  RH WIND       PRES   REMARKS
LAS VEGAS      CLEAR     74  10   8 NE10      30.00S
SALT LAKE CITY PTCLDY    50  32  50 W7        30.19R
$$

NMZ009-TXZ055-300400-
NEW MEXICO-WEST TEXAS

CITY           SKY/WX    TMP DP  RH WIND       PRES   REMARKS
ALBUQUERQUE    LGT RAIN  38  35  89 SW10      30.05R WCI  31
EL PASO        PTCLDY    52  28  39 N15       30.00R
$$


........................KEY........................
SKY/WX - SKY CONDITION/WEATHER
TMP    - TEMPERATURE IN FAHRENHEIT
DP     - DEW POINT IN FAHRENHEIT
RH     - RELATIVE HUMIDITY IN PERCENT
WIND   - DIRECTION AND SPEED IN MILES PER HOUR (MPH)
VRB    - VARIABLE WIND DIRECTION
PRES   - MEAN SEA LEVEL PRESSURE IN INCHES OF MERCURY
         F - FALLING PRESSURE   R - RISING PRESSURE
         S - STEADY PRESSURE
VSB    - VISIBILITY IN MILES
HX     - HEAT INDEX IN FAHRENHEIT
WCI    - WIND CHILL INDEX IN FAHRENHEIT
TC     - TEMPERATURE IN CELSIUS WHICH IS ALSO KNOWN AS
         TEMPERATURE IN CENTIGRADE
AFB    - AIR FORCE BASE
         LUKE AFB IS LUKE AIR FORCE BASE
         DAVIS-MONTHAN IS DAVIS-MONTHAN AIR FORCE BASE
NAS    - NAVAL AIR STATION
         EL CENTRO NAS IS EL CENTRO NAVAL AIR STATION
N/A    - NOT AVAILABLE





USA.gov is the U.S. government's official web portal to all federal, state and local government web resources and services.